FW3706 Weather Reports


Display with metric or nautical units.
time (UTC)temp
F
wind
direction
speed
MPH
gust
MPH
rain 1hr
in
rain 24hr
in
rain mn
in
humidity
%
barometer
mb
20260903190504 91 185 2.0 7.0 0.00 0.00 0.00 45 1015.3
20260903190027 91 149 0.0 7.0 0.00 0.00 0.00 46 1015.4
20260903185507 90 143 2.0 7.0 0.00 0.00 0.00 46 1015.5
20260903185006 91 103 1.0 5.0 0.00 0.00 0.00 47 1015.6
20260903184533 90 223 1.0 9.0 0.00 0.00 0.00 48 1015.6
20260903184009 89 176 2.0 9.0 0.00 0.00 0.00 49 1015.8
20260903183520 89 117 4.0 7.0 0.00 0.00 0.00 48 1015.8
20260903183027 90 143 1.0 5.0 0.00 0.00 0.00 48 1015.8
20260903182511 90 199 2.0 5.0 0.00 0.00 0.00 48 1015.9
20260903182021 90 162 1.0 4.0 0.00 0.00 0.00 49 1016.0
20260903181533 89 148 0.0 5.0 0.00 0.00 0.00 50 1016.1
20260903181008 88 148 0.0 6.0 0.00 0.00 0.00 50 1016.3
20260903180519 88 158 1.0 6.0 0.00 0.00 0.00 51 1016.3
20260903180032 88 174 1.0 5.0 0.00 0.00 0.00 51 1016.4
20260903175518 88 146 0.0 5.0 0.00 0.00 0.00 52 1016.5
20260903175019 87 122 0.0 5.0 0.00 0.00 0.00 52 1016.5
20260903174528 87 73 0.0 5.0 0.00 0.00 0.00 53 1016.5
20260903174018 87 77 1.0 5.0 0.00 0.00 0.00 53 1016.5
20260903173520 87 131 0.0 5.0 0.00 0.00 0.00 53 1016.6
20260903173037 86 128 1.0 6.0 0.00 0.00 0.00 55 1016.6
20260903172518 86 77 0.0 6.0 0.00 0.00 0.00 55 1016.6
20260903172017 86 94 1.0 4.0 0.00 0.00 0.00 56 1016.5
20260903171540 85 120 0.0 3.0 0.00 0.00 0.00 57 1016.6
20260903171010 85 122 0.0 3.0 0.00 0.00 0.00 58 1016.5
20260903170516 84 120 0.0 5.0 0.00 0.00 0.00 58 1016.5
20260903170037 84 105 0.0 5.0 0.00 0.00 0.00 59 1016.5
20260903165513 84 95 1.0 4.0 0.00 0.00 0.00 59 1016.5
20260903165015 84 119 0.0 4.0 0.00 0.00 0.00 59 1016.6
20260903164544 84 117 1.0 4.0 0.00 0.00 0.00 60 1016.6
20260903164019 84 115 2.0 3.0 0.00 0.00 0.00 60 1016.6
20260903163517 84 113 1.0 3.0 0.00 0.00 0.00 60 1016.6
20260903163036 84 101 0.0 5.0 0.00 0.00 0.00 60 1016.6
20260903162515 83 98 1.0 4.0 0.00 0.00 0.00 59 1016.6
20260903162021 83 107 1.0 4.0 0.00 0.00 0.00 60 1016.6
20260903161529 83 128 1.0 4.0 0.00 0.00 0.00 60 1016.6
20260903161008 83 160 0.0 4.0 0.00 0.00 0.00 60 1016.6
20260903160522 83 163 0.0 4.0 0.00 0.00 0.00 61 1016.6
20260903160043 83 96 0.0 4.0 0.00 0.00 0.00 61 1016.6
20260903155521 83 97 1.0 5.0 0.00 0.00 0.00 61 1016.6
20260903155020 83 84 0.0 5.0 0.00 0.00 0.00 61 1016.5
20260903154529 83 68 2.0 5.0 0.00 0.00 0.00 61 1016.5
20260903154020 83 75 0.0 4.0 0.00 0.00 0.00 61 1016.5
20260903153520 83 300 0.0 0.0 0.00 0.00 0.00 62 1016.4
20260903153028 83 300 0.0 0.0 0.00 0.00 0.00 63 1016.5
20260903152508 82 300 0.0 0.0 0.00 0.00 0.00 63 1016.5
20260903152016 82 300 0.0 0.0 0.00 0.00 0.00 65 1016.5
20260903151529 81 300 0.0 0.0 0.00 0.00 0.00 67 1016.5
20260903151018 80 297 0.0 4.0 0.00 0.00 0.00 68 1016.5
20260903150518 80 297 0.0 4.0 0.00 0.00 0.00 69 1016.5
20260903150057 79 296 1.0 4.0 0.00 0.00 0.00 69 1016.5
20260903145509 79 294 0.0 5.0 0.00 0.00 0.00 70 1016.5
20260903145005 79 293 1.0 6.0 0.00 0.00 0.00 71 1016.6
20260903144538 78 360 3.0 7.0 0.00 0.00 0.00 70 1016.6
20260903144024 78 334 3.0 7.0 0.00 0.00 0.00 71 1016.6
20260903143507 78 312 2.0 6.0 0.00 0.00 0.00 71 1016.6
20260903143030 78 291 2.0 6.0 0.00 0.00 0.00 71 1016.6
20260903142522 78 290 2.0 5.0 0.00 0.00 0.00 71 1016.6
20260903142016 79 360 2.0 5.0 0.00 0.00 0.00 70 1016.6
20260903141536 79 269 1.0 4.0 0.00 0.00 0.00 70 1016.6
20260903141010 79 269 1.0 6.0 0.00 0.00 0.00 69 1016.7
20260903140518 79 267 2.0 8.0 0.00 0.00 0.00 68 1016.6
20260903140038 79 275 2.0 8.0 0.00 0.00 0.00 67 1016.6
20260903135508 79 285 4.0 8.0 0.00 0.00 0.00 66 1016.5
20260903135004 79 275 2.0 6.0 0.00 0.00 0.00 66 1016.5
20260903134538 79 255 1.0 8.0 0.00 0.00 0.00 66 1016.5
20260903134009 79 229 2.0 8.0 0.00 0.00 0.00 65 1016.5
20260903133505 79 252 3.0 6.0 0.00 0.00 0.00 65 1016.3
20260903133033 79 264 2.0 6.0 0.00 0.00 0.00 64 1016.4
20260903132517 79 238 2.0 5.0 0.00 0.00 0.00 64 1016.4
20260903132020 79 360 0.0 5.0 0.00 0.00 0.00 64 1016.3
20260903131528 79 360 0.0 5.0 0.00 0.00 0.00 66 1016.1
20260903131019 79 82 0.0 0.0 0.00 0.00 0.00 69 1016.0
20260903130504 79 81 0.0 0.0 0.00 0.00 0.00 68 1015.9
20260903130028 80 360 0.0 1.0 0.00 0.00 0.00 68 1015.9
20260903125508 80 360 0.0 1.0 0.00 0.00 0.00 67 1016.0
20260903125004 80 81 0.0 1.0 0.00 0.00 0.00 67 1015.9
20260903124525 80 80 0.0 3.0 0.00 0.00 0.00 67 1015.8
20260903124008 80 82 0.0 3.0 0.00 0.00 0.00 67 1015.8
20260903123519 80 79 0.0 3.0 0.00 0.00 0.00 66 1015.7
20260903123033 80 79 0.0 3.0 0.00 0.00 0.00 66 1015.7
20260903122508 80 360 0.0 3.0 0.00 0.00 0.00 66 1015.6
20260903122016 80 77 0.0 6.0 0.00 0.00 0.00 66 1015.5
20260903121529 80 70 0.0 6.0 0.00 0.00 0.00 66 1015.5
20260903121008 80 63 0.0 6.0 0.00 0.00 0.00 67 1015.4
20260903120522 80 99 1.0 5.0 0.00 0.00 0.00 67 1015.4
20260903120027 80 99 0.0 5.0 0.00 0.00 0.00 67 1015.4
20260903115509 80 79 0.0 4.0 0.00 0.00 0.00 67 1015.3
20260903115019 80 66 0.0 4.0 0.00 0.00 0.00 67 1015.3
20260903114530 80 70 0.0 4.0 0.00 0.00 0.00 67 1015.2
20260903114021 80 73 1.0 4.0 0.00 0.00 0.00 67 1015.1
20260903113516 80 70 0.0 7.0 0.00 0.00 0.00 67 1015.2
20260903113056 80 360 1.0 7.0 0.00 0.00 0.00 67 1015.1
20260903112511 80 66 1.0 5.0 0.00 0.00 0.00 67 1015.0
20260903112014 80 360 1.0 5.0 0.00 0.00 0.00 68 1015.1
20260903111527 80 64 2.0 5.0 0.00 0.00 0.00 68 1015.1
20260903111008 80 52 0.0 5.0 0.00 0.00 0.00 68 1015.2
20260903110517 80 360 1.0 5.0 0.00 0.00 0.00 68 1015.2
20260903110030 80 72 0.0 5.0 0.00 0.00 0.00 68 1015.2
20260903105513 80 360 1.0 5.0 0.00 0.00 0.00 67 1015.2
20260903105017 80 64 0.0 5.0 0.00 0.00 0.00 67 1015.2
20260903104527 80 68 1.0 6.0 0.00 0.00 0.00 67 1015.2
20260903104010 80 70 2.0 6.0 0.00 0.00 0.00 67 1015.2
20260903103516 80 360 2.0 5.0 0.00 0.00 0.00 67 1015.2
20260903103028 80 360 2.0 5.0 0.00 0.00 0.00 67 1015.3
20260903102508 80 360 2.0 5.0 0.00 0.00 0.00 67 1015.3
20260903102013 80 360 1.0 4.0 0.00 0.00 0.00 66 1015.3
20260903101536 80 360 0.0 4.0 0.00 0.00 0.00 66 1015.3
20260903101012 80 97 1.0 4.0 0.00 0.00 0.00 66 1015.3
20260903100519 81 360 0.0 7.0 0.00 0.00 0.00 66 1015.4
20260903100034 81 360 1.0 7.0 0.00 0.00 0.00 65 1015.4
20260903095507 81 360 1.0 6.0 0.00 0.00 0.00 66 1015.4
20260903095016 81 360 1.0 6.0 0.00 0.00 0.00 66 1015.4
20260903094528 81 360 2.0 5.0 0.00 0.00 0.00 66 1015.3
20260903094008 81 77 1.0 5.0 0.00 0.00 0.00 66 1015.3
20260903093516 81 360 0.0 5.0 0.00 0.00 0.00 66 1015.3
20260903093031 81 68 0.0 5.0 0.00 0.00 0.00 66 1015.3
20260903092510 81 63 1.0 5.0 0.00 0.00 0.00 66 1015.4
20260903092016 81 360 0.0 5.0 0.00 0.00 0.00 66 1015.4
20260903091530 81 360 0.0 3.0 0.00 0.00 0.00 65 1015.4
20260903091008 81 360 0.0 1.0 0.00 0.00 0.00 65 1015.3
20260903090518 81 65 0.0 1.0 0.00 0.00 0.00 65 1015.3
20260903090029 81 360 0.0 1.0 0.00 0.00 0.00 65 1015.4
20260903085508 82 360 0.0 1.0 0.00 0.00 0.00 65 1015.4
20260903085019 82 65 0.0 3.0 0.00 0.00 0.00 64 1015.4
20260903084538 82 63 0.0 3.0 0.00 0.00 0.00 64 1015.4
20260903084009 82 65 0.0 2.0 0.00 0.00 0.00 64 1015.5
20260903083516 82 360 0.0 2.0 0.00 0.00 0.00 63 1015.4
20260903083031 82 360 0.0 0.0 0.00 0.00 0.00 63 1015.4
20260903082508 82 360 0.0 0.0 0.00 0.00 0.00 63 1015.4
20260903082018 82 360 0.0 0.0 0.00 0.00 0.00 62 1015.5
20260903081530 82 360 0.0 0.0 0.00 0.00 0.00 62 1015.5
20260903081009 82 65 0.0 1.0 0.00 0.00 0.00 61 1015.5
20260903080516 82 63 0.0 1.0 0.00 0.00 0.00 61 1015.6
20260903080028 82 65 0.0 1.0 0.00 0.00 0.00 61 1015.6
20260903075509 82 65 0.0 1.0 0.00 0.00 0.00 61 1015.6
20260903075016 82 63 0.0 1.0 0.00 0.00 0.00 60 1015.6
20260903074532 82 63 0.0 0.0 0.00 0.00 0.00 60 1015.6
20260903074010 82 65 0.0 0.0 0.00 0.00 0.00 60 1015.6
20260903073515 82 65 0.0 0.0 0.00 0.00 0.00 60 1015.6
20260903073029 82 360 0.0 0.0 0.00 0.00 0.00 60 1015.6
20260903072519 82 65 0.0 1.0 0.00 0.00 0.00 60 1015.6
20260903072018 82 360 0.0 1.0 0.00 0.00 0.00 60 1015.5
20260903071531 82 360 0.0 0.0 0.00 0.00 0.00 59 1015.4
20260903071017 83 65 0.0 1.0 0.00 0.00 0.00 59 1015.4
20260903070515 83 63 0.0 1.0 0.00 0.00 0.00 59 1015.4
20260903070032 83 360 0.0 0.0 0.00 0.00 0.00 59 1015.4
20260903065517 83 360 0.0 0.0 0.00 0.00 0.00 58 1015.4
20260903065016 83 360 0.0 0.0 0.00 0.00 0.00 58 1015.2
20260903064514 83 360 0.0 1.0 0.00 0.00 0.00 58 1015.3
20260903064006 83 63 0.0 1.0 0.00 0.00 0.00 58 1015.3
20260903063506 83 62 0.0 1.0 0.00 0.00 0.00 57 1015.3
20260903063016 83 63 0.0 0.0 0.00 0.00 0.00 57 1015.3
20260903062506 83 64 0.0 0.0 0.00 0.00 0.00 57 1015.4
20260903062006 83 65 0.0 0.0 0.00 0.00 0.00 57 1015.4
20260903061516 83 8 0.0 0.0 0.00 0.00 0.00 57 1015.4
20260903061005 83 8 0.0 0.0 0.00 0.00 0.00 57 1015.4
20260903060505 83 360 0.0 0.0 0.00 0.00 0.00 56 1015.4
20260903060019 83 11 0.0 0.0 0.00 0.00 0.00 56 1015.4
20260903055507 83 9 0.0 0.0 0.00 0.00 0.00 56 1015.4
20260903055006 84 11 0.0 1.0 0.00 0.00 0.00 55 1015.4
20260903054516 84 360 0.0 1.0 0.00 0.00 0.00 55 1015.4
20260903054008 84 10 0.0 3.0 0.00 0.00 0.00 55 1015.5
20260903053506 84 12 0.0 3.0 0.00 0.00 0.00 55 1015.5
20260903053028 84 9 0.0 2.0 0.00 0.00 0.00 55 1015.5
20260903052507 84 10 0.0 5.0 0.00 0.00 0.00 55 1015.6
20260903052007 84 360 1.0 5.0 0.00 0.00 0.00 55 1015.6
20260903051516 84 360 2.0 5.0 0.00 0.00 0.00 55 1015.6
20260903051007 84 360 2.0 5.0 0.00 0.00 0.00 55 1015.6
20260903050505 84 360 1.0 5.0 0.00 0.00 0.00 55 1015.5
20260903050029 84 360 1.0 5.0 0.00 0.00 0.00 55 1015.5
20260903045505 85 360 1.0 3.0 0.00 0.00 0.00 55 1015.5
20260903045001 85 11 0.0 5.0 0.00 0.00 0.00 54 1015.5
20260903044516 85 360 0.0 5.0 0.00 0.00 0.00 54 1015.5
20260903044006 85 360 1.0 3.0 0.00 0.00 0.00 54 1015.4
20260903043507 85 360 0.0 4.0 0.00 0.00 0.00 54 1015.5
20260903043029 85 360 0.0 5.0 0.00 0.00 0.00 54 1015.5
20260903042510 85 360 1.0 5.0 0.00 0.00 0.00 53 1015.3
20260903042005 85 360 0.0 5.0 0.00 0.00 0.00 53 1015.3
20260903041524 86 360 2.0 5.0 0.00 0.00 0.00 53 1015.1
20260903041006 86 360 1.0 5.0 0.00 0.00 0.00 53 1015.1
20260903040502 86 360 0.0 8.0 0.00 0.00 0.00 53 1015.1
20260903040018 86 360 3.0 8.0 0.00 0.00 0.00 53 1015.1
20260903035507 86 8 2.0 5.0 0.00 0.00 0.00 53 1015.1
20260903035006 86 6 1.0 5.0 0.00 0.00 0.00 53 1014.9
20260903034517 86 6 0.0 5.0 0.00 0.00 0.00 53 1015.0
20260903034010 86 6 0.0 4.0 0.00 0.00 0.00 53 1014.9
20260903033506 86 8 0.0 4.0 0.00 0.00 0.00 53 1014.9
20260903033019 86 8 0.0 6.0 0.00 0.00 0.00 53 1014.8
20260903032507 86 11 1.0 6.0 0.00 0.00 0.00 53 1014.7
20260903032002 86 10 0.0 4.0 0.00 0.00 0.00 53 1014.6
20260903031518 86 360 0.0 3.0 0.00 0.00 0.00 53 1014.6
20260903031006 86 360 0.0 3.0 0.00 0.00 0.00 53 1014.5
20260903030506 86 360 0.0 3.0 0.00 0.00 0.00 53 1014.5
20260903030023 86 360 0.0 3.0 0.00 0.00 0.00 52 1014.3
20260903025510 87 360 0.0 3.0 0.00 0.00 0.00 51 1014.2
20260903025004 87 360 0.0 3.0 0.00 0.00 0.00 50 1014.2
20260903024519 87 360 0.0 3.0 0.00 0.00 0.00 49 1014.2
20260903024008 87 360 0.0 3.0 0.00 0.00 0.00 48 1014.2
20260903023505 87 360 0.0 2.0 0.00 0.00 0.00 46 1014.2
20260903023019 88 6 0.0 2.0 0.00 0.00 0.00 46 1014.1
20260903022507 88 6 0.0 2.0 0.00 0.00 0.00 45 1013.9
20260903022004 88 6 0.0 2.0 0.00 0.00 0.00 44 1014.0
20260903021520 88 7 0.0 2.0 0.00 0.00 0.00 44 1014.1
20260903021005 88 8 0.0 3.0 0.00 0.00 0.00 44 1014.1
20260903020504 88 6 0.0 3.0 0.00 0.00 0.00 43 1014.0
20260903020020 89 6 0.0 3.0 0.00 0.00 0.00 43 1014.0
20260903015508 89 6 0.0 4.0 0.00 0.00 0.00 44 1014.0
20260903015007 89 6 0.0 4.0 0.00 0.00 0.00 43 1014.1
20260903014523 89 6 1.0 3.0 0.00 0.00 0.00 43 1014.0
20260903014010 90 6 0.0 3.0 0.00 0.00 0.00 44 1014.0
20260903013512 90 6 0.0 2.0 0.00 0.00 0.00 44 1013.9
20260903013024 90 6 0.0 3.0 0.00 0.00 0.00 43 1013.9
20260903012509 90 6 0.0 6.0 0.00 0.00 0.00 44 1013.9
20260903012011 90 6 0.0 4.0 0.00 0.00 0.00 45 1013.8
20260903011528 90 5 0.0 5.0 0.00 0.00 0.00 44 1013.8
20260903011008 90 5 1.0 5.0 0.00 0.00 0.00 44 1013.8
20260903010512 90 6 1.0 5.0 0.00 0.00 0.00 44 1013.7
20260903010024 91 5 0.0 4.0 0.00 0.00 0.00 43 1013.7
20260903005508 91 155 0.0 4.0 0.00 0.00 0.00 44 1013.6
20260903005012 91 184 0.0 4.0 0.00 0.00 0.00 43 1013.6
20260903004525 91 180 1.0 7.0 0.00 0.00 0.00 43 1013.8
20260903004009 91 168 0.0 7.0 0.00 0.00 0.00 43 1013.8
20260903003510 91 144 0.0 6.0 0.00 0.00 0.00 44 1013.8
20260903003022 91 191 2.0 6.0 0.00 0.00 0.00 43 1013.9
20260903002513 90 169 2.0 10.0 0.00 0.00 0.00 44 1013.9
20260903002005 90 190 2.0 10.0 0.00 0.00 0.00 45 1013.8
20260903001524 90 168 3.0 8.0 0.00 0.00 0.00 44 1013.9
20260903001006 91 146 3.0 8.0 0.00 0.00 0.00 44 1013.9
20260903000504 91 150 2.0 7.0 0.00 0.00 0.00 44 1013.9
20260903000031 91 129 1.0 8.0 0.00 0.00 0.00 43 1013.9
20260902235510 92 183 2.0 8.0 0.00 0.00 0.00 42 1013.8
20260902235014 93 47 0.0 6.0 0.00 0.00 0.00 41 1013.8
20260902234526 93 293 0.0 2.0 0.00 0.00 0.00 38 1013.9
20260902234007 93 292 0.0 2.0 0.00 0.00 0.00 39 1013.9
20260902233504 93 293 0.0 2.0 0.00 0.00 0.00 40 1013.9
20260902233027 93 289 0.0 2.0 0.00 0.00 0.00 40 1013.8
20260902232506 93 289 0.0 1.0 0.00 0.00 0.00 40 1013.8
20260902232003 92 289 0.0 2.0 0.00 0.00 0.00 40 1013.8
20260902231526 92 289 0.0 2.0 0.00 0.00 0.00 42 1013.8
20260902231007 92 289 0.0 3.0 0.00 0.00 0.00 42 1013.9
20260902230503 92 289 0.0 3.0 0.00 0.00 0.00 41 1014.1
20260902230027 91 289 0.0 3.0 0.00 0.00 0.00 42 1014.2
20260902225512 91 285 0.0 3.0 0.00 0.00 0.00 44 1014.3
20260902225005 91 285 0.0 3.0 0.00 0.00 0.00 44 1014.3
20260902224526 92 288 0.0 3.0 0.00 0.00 0.00 45 1014.5
20260902224007 92 295 0.0 3.0 0.00 0.00 0.00 45 1014.6
20260902223511 92 297 1.0 7.0 0.00 0.00 0.00 44 1014.5
20260902223029 92 292 1.0 11.0 0.00 0.00 0.00 46 1014.4
20260902222511 92 254 4.0 11.0 0.00 0.00 0.00 45 1014.6
20260902222004 92 263 2.0 9.0 0.00 0.00 0.00 45 1014.6
20260902221533 92 269 5.0 9.0 0.00 0.00 0.00 44 1014.6
20260902221008 92 251 3.0 7.0 0.00 0.00 0.00 45 1014.6
20260902220504 92 254 4.0 7.0 0.00 0.00 0.00 44 1014.7
20260902220041 92 274 0.0 6.0 0.00 0.00 0.00 44 1014.7
20260902215508 92 270 1.0 7.0 0.00 0.00 0.00 44 1014.8
20260902215003 92 255 3.0 7.0 0.00 0.00 0.00 44 1014.9
20260902214527 92 269 1.0 6.0 0.00 0.00 0.00 44 1014.9
20260902214013 92 264 2.0 5.0 0.00 0.00 0.00 43 1014.9
20260902213504 92 249 1.0 8.0 0.00 0.00 0.00 42 1014.8
20260902213029 92 249 4.0 8.0 0.00 0.00 0.00 41 1014.7
20260902212507 93 321 0.0 6.0 0.00 0.00 0.00 41 1014.7
20260902212004 93 281 1.0 7.0 0.00 0.00 0.00 42 1014.9
20260902211526 93 267 1.0 7.0 0.00 0.00 0.00 42 1015.1
20260902211006 93 204 0.0 6.0 0.00 0.00 0.00 40 1015.2
20260902210514 93 205 2.0 7.0 0.00 0.00 0.00 40 1015.3
20260902210049 93 299 3.0 7.0 0.00 0.00 0.00 39 1015.3
20260902205506 93 286 1.0 9.0 0.00 0.00 0.00 41 1015.4
20260902205003 93 221 3.0 9.0 0.00 0.00 0.00 42 1015.4
20260902204533 93 254 4.0 9.0 0.00 0.00 0.00 41 1015.4
20260902204007 93 250 2.0 9.0 0.00 0.00 0.00 41 1015.5
20260902203510 93 272 2.0 9.0 0.00 0.00 0.00 39 1015.6
20260902203028 95 237 3.0 8.0 0.00 0.00 0.00 39 1015.6
20260902202507 95 280 1.0 9.0 0.00 0.00 0.00 41 1015.6
20260902202016 94 259 3.0 13.0 0.00 0.00 0.00 41 1015.6
20260902201530 93 274 5.0 13.0 0.00 0.00 0.00 42 1015.7
20260902201008 92 254 4.0 9.0 0.00 0.00 0.00 44 1015.8
20260902200515 92 266 6.0 9.0 0.00 0.00 0.00 43 1015.8
20260902200029 93 295 4.0 10.0 0.00 0.00 0.00 43 1015.9
20260902195507 92 289 3.0 10.0 0.00 0.00 0.00 45 1016.0
20260902195013 92 302 4.0 9.0 0.00 0.00 0.00 44 1016.1
20260902194532 93 298 2.0 8.0 0.00 0.00 0.00 44 1016.1
20260902194008 93 332 4.0 8.0 0.00 0.00 0.00 43 1016.3
20260902193515 94 278 4.0 8.0 0.00 0.00 0.00 43 1016.4
20260902193027 94 296 2.0 9.0 0.00 0.00 0.00 43 1016.5
20260902192507 93 295 4.0 9.0 0.00 0.00 0.00 44 1016.5
20260902192015 93 269 3.0 10.0 0.00 0.00 0.00 45 1016.7
20260902191531 93 261 6.0 10.0 0.00 0.00 0.00 44 1016.7
20260902191007 93 282 2.0 8.0 0.00 0.00 0.00 46 1016.8